Time,TemperatureF,DewpointF,PressureIn,WindDirection,WindDirectionDegrees,WindSpeedMPH,WindSpeedGustMPH,Humidity,HourlyPrecipIn,Conditions,Clouds,dailyrainin,SoftwareType,DateUTC
2013-05-08 00:00:00,52.7,52.0,30.18,ENE,66,0.0,1.0,97,0.07,,,2.76,weatherlink.com 1.10,2013-05-08 04:00:00,
2013-05-08 00:15:00,52.7,52.0,30.17,North,5,4.0,6.0,97,0.07,,,0.02,weatherlink.com 1.10,2013-05-08 04:15:00,
2013-05-08 00:30:00,52.6,52.0,30.18,NE,49,2.0,6.0,97,0.08,,,0.04,weatherlink.com 1.10,2013-05-08 04:30:00,
2013-05-08 00:45:00,52.7,52.0,30.18,ENE,59,5.0,9.0,97,0.07,,,0.05,weatherlink.com 1.10,2013-05-08 04:45:00,
2013-05-08 01:00:00,52.7,52.0,30.17,ENE,67,6.0,10.0,97,0.06,,,0.06,weatherlink.com 1.10,2013-05-08 05:00:00,
2013-05-08 01:15:00,52.7,52.0,30.17,North,9,0.0,5.0,97,0.06,,,0.08,weatherlink.com 1.10,2013-05-08 05:15:00,
2013-05-08 01:30:00,52.6,52.0,30.17,NNE,30,0.0,5.0,97,0.05,,,0.09,weatherlink.com 1.10,2013-05-08 05:30:00,
2013-05-08 01:45:00,52.5,52.0,30.17,NNE,30,0.0,1.0,97,0.05,,,0.10,weatherlink.com 1.10,2013-05-08 05:45:00,
2013-05-08 02:00:00,52.4,52.0,30.18,NNE,30,0.0,0.0,97,0.04,,,0.10,weatherlink.com 1.10,2013-05-08 06:00:00,
2013-05-08 02:15:00,52.4,52.0,30.17,NW,325,0.0,4.0,97,0.02,,,0.10,weatherlink.com 1.10,2013-05-08 06:15:00,
2013-05-08 02:30:00,52.2,51.0,30.17,NW,325,0.0,0.0,97,0.01,,,0.10,weatherlink.com 1.10,2013-05-08 06:30:00,
2013-05-08 02:45:00,51.9,51.0,30.18,SW,217,0.0,0.0,97,0.00,,,0.10,weatherlink.com 1.10,2013-05-08 06:45:00,
2013-05-08 03:00:00,51.6,51.0,30.18,SW,217,0.0,0.0,97,0.00,,,0.10,weatherlink.com 1.10,2013-05-08 07:00:00,
2013-05-08 03:15:00,51.5,51.0,30.18,SW,217,0.0,0.0,97,0.00,,,0.10,weatherlink.com 1.10,2013-05-08 07:15:00,
2013-05-08 03:30:00,51.5,51.0,30.18,SSW,211,2.0,3.0,97,0.00,,,0.10,weatherlink.com 1.10,2013-05-08 07:30:00,
2013-05-08 03:45:00,51.5,51.0,30.19,SW,224,0.0,4.0,97,0.00,,,0.10,weatherlink.com 1.10,2013-05-08 07:45:00,
2013-05-08 04:00:00,51.4,51.0,30.19,SW,224,0.0,0.0,97,0.00,,,0.10,weatherlink.com 1.10,2013-05-08 08:00:00,
2013-05-08 04:15:00,51.4,51.0,30.19,SSW,206,0.0,0.0,97,0.00,,,0.10,weatherlink.com 1.10,2013-05-08 08:15:00,
2013-05-08 04:30:00,51.2,50.0,30.19,SE,141,0.0,0.0,97,0.00,,,0.10,weatherlink.com 1.10,2013-05-08 08:30:00,
2013-05-08 04:45:00,51.0,50.0,30.19,ENE,77,0.0,2.0,97,0.00,,,0.10,weatherlink.com 1.10,2013-05-08 08:45:00,
2013-05-08 05:00:00,50.8,50.0,30.19,NNE,32,0.0,5.0,97,0.00,,,0.10,weatherlink.com 1.10,2013-05-08 09:00:00,
2013-05-08 05:15:00,50.6,50.0,30.19,NNE,32,0.0,4.0,97,0.00,,,0.10,weatherlink.com 1.10,2013-05-08 09:15:00,
2013-05-08 05:30:00,50.6,50.0,30.19,East,98,0.0,2.0,97,0.00,,,0.10,weatherlink.com 1.10,2013-05-08 09:30:00,
2013-05-08 05:45:00,50.6,50.0,30.19,East,98,0.0,4.0,97,0.00,,,0.10,weatherlink.com 1.10,2013-05-08 09:45:00,
2013-05-08 06:00:00,50.5,50.0,30.20,East,84,5.0,6.0,97,0.00,,,0.10,weatherlink.com 1.10,2013-05-08 10:00:00,
2013-05-08 06:15:00,50.3,50.0,30.20,East,79,0.0,1.0,98,0.00,,,0.10,weatherlink.com 1.10,2013-05-08 10:15:00,
2013-05-08 06:30:00,50.4,50.0,30.21,ESE,105,0.0,2.0,98,0.00,,,0.10,weatherlink.com 1.10,2013-05-08 10:30:00,
2013-05-08 06:45:00,50.5,50.0,30.21,East,90,1.0,4.0,98,0.00,,,0.10,weatherlink.com 1.10,2013-05-08 10:45:00,
2013-05-08 07:00:00,50.6,50.0,30.22,NE,50,2.0,5.0,98,0.00,,,0.10,weatherlink.com 1.10,2013-05-08 11:00:00,
2013-05-08 07:15:00,50.8,50.0,30.22,ENE,61,0.0,5.0,97,0.00,,,0.10,weatherlink.com 1.10,2013-05-08 11:15:00,
2013-05-08 07:30:00,50.8,50.0,30.23,NE,51,0.0,4.0,97,0.00,,,0.10,weatherlink.com 1.10,2013-05-08 11:30:00,
2013-05-08 07:45:00,51.0,51.0,30.23,NNE,25,0.0,4.0,98,0.00,,,0.10,weatherlink.com 1.10,2013-05-08 11:45:00,
2013-05-08 08:00:00,51.0,51.0,30.23,ENE,59,0.0,2.0,98,0.00,,,0.10,weatherlink.com 1.10,2013-05-08 12:00:00,
2013-05-08 08:15:00,51.0,51.0,30.24,ENE,69,4.0,5.0,98,0.00,,,0.10,weatherlink.com 1.10,2013-05-08 12:15:00,
2013-05-08 08:30:00,51.2,50.0,30.24,ENE,72,0.0,1.0,97,0.00,,,0.10,weatherlink.com 1.10,2013-05-08 12:30:00,
2013-05-08 08:45:00,51.5,51.0,30.24,ENE,76,0.0,2.0,98,0.00,,,0.10,weatherlink.com 1.10,2013-05-08 12:45:00,
2013-05-08 09:00:00,51.8,51.0,30.24,NE,46,0.0,2.0,98,0.00,,,0.10,weatherlink.com 1.10,2013-05-08 13:00:00,
2013-05-08 09:15:00,52.3,52.0,30.24,NNE,26,0.0,2.0,98,0.00,,,0.10,weatherlink.com 1.10,2013-05-08 13:15:00,
2013-05-08 09:30:00,52.4,52.0,30.25,ENE,58,0.0,4.0,98,0.00,,,0.10,weatherlink.com 1.10,2013-05-08 13:30:00,
2013-05-08 09:45:00,52.9,52.0,30.24,NNE,28,0.0,4.0,98,0.00,,,0.10,weatherlink.com 1.10,2013-05-08 13:45:00,
2013-05-08 10:00:00,53.5,53.0,30.25,NE,46,1.0,5.0,97,0.00,,,0.10,weatherlink.com 1.10,2013-05-08 14:00:00,
2013-05-08 10:26:00,54.9,53.0,30.24,ENE,73,1.0,6.0,93,0.00,,,0.10,weatherlink.com 1.10,2013-05-08 14:26:00,
2013-05-08 10:46:00,57.1,55.0,30.24,NNE,12,1.0,2.0,91,0.00,,,0.10,weatherlink.com 1.10,2013-05-08 14:46:00,
2013-05-08 11:01:00,58.3,54.0,30.24,NNE,24,0.0,6.0,85,0.00,,,0.10,weatherlink.com 1.10,2013-05-08 15:01:00,
2013-05-08 11:16:00,58.7,54.0,30.24,NE,53,0.0,6.0,85,0.00,,,0.10,weatherlink.com 1.10,2013-05-08 15:16:00,
2013-05-08 11:31:00,60.3,54.0,30.24,North,355,1.0,4.0,80,0.00,,,0.10,weatherlink.com 1.10,2013-05-08 15:31:00,
2013-05-08 11:46:00,59.8,54.0,30.23,WNW,296,0.0,2.0,81,0.00,,,0.10,weatherlink.com 1.10,2013-05-08 15:46:00,
2013-05-08 12:01:00,61.0,54.0,30.22,SSE,157,4.0,5.0,79,0.00,,,0.10,weatherlink.com 1.10,2013-05-08 16:01:00,
2013-05-08 12:16:00,62.0,54.0,30.21,North,11,1.0,4.0,76,0.00,,,0.10,weatherlink.com 1.10,2013-05-08 16:16:00,
2013-05-08 12:31:00,63.2,54.0,30.21,NNE,12,0.0,4.0,73,0.00,,,0.10,weatherlink.com 1.10,2013-05-08 16:31:00,
2013-05-08 12:46:00,62.8,54.0,30.20,WNW,296,0.0,1.0,73,0.00,,,0.10,weatherlink.com 1.10,2013-05-08 16:46:00,
2013-05-08 13:01:00,64.8,54.0,30.20,SE,140,0.0,4.0,67,0.00,,,0.10,weatherlink.com 1.10,2013-05-08 17:01:00,
2013-05-08 13:16:00,65.2,54.0,30.19,NNE,30,1.0,2.0,68,0.00,,,0.10,weatherlink.com 1.10,2013-05-08 17:16:00,
2013-05-08 13:31:00,64.3,53.0,30.19,SW,219,0.0,0.0,67,0.00,,,0.10,weatherlink.com 1.10,2013-05-08 17:31:00,
2013-05-08 13:46:00,60.5,55.0,30.19,West,275,6.0,12.0,83,0.00,,,0.10,weatherlink.com 1.10,2013-05-08 17:46:00,
2013-05-08 14:01:00,59.3,56.0,30.18,NNW,329,2.0,6.0,87,0.02,,,0.12,weatherlink.com 1.10,2013-05-08 18:01:00,
2013-05-08 14:16:00,59.8,54.0,30.18,NW,317,4.0,9.0,81,0.02,,,0.12,weatherlink.com 1.10,2013-05-08 18:16:00,
2013-05-08 14:31:00,59.6,55.0,30.18,NNE,28,0.0,7.0,84,0.04,,,0.14,weatherlink.com 1.10,2013-05-08 18:31:00,
2013-05-08 14:46:00,58.5,54.0,30.18,West,274,0.0,7.0,85,0.04,,,0.14,weatherlink.com 1.10,2013-05-08 18:46:00,
2013-05-08 15:01:00,57.9,54.0,30.19,NNE,28,0.0,8.0,85,0.04,,,0.16,weatherlink.com 1.10,2013-05-08 19:01:00,
2013-05-08 15:16:00,57.9,54.0,30.18,NNW,329,6.0,8.0,85,0.05,,,0.17,weatherlink.com 1.10,2013-05-08 19:16:00,
2013-05-08 15:31:00,58.7,55.0,30.18,NNW,329,5.0,7.0,86,0.04,,,0.18,weatherlink.com 1.10,2013-05-08 19:31:00,
2013-05-08 15:46:00,59.9,55.0,30.17,NW,314,7.0,9.0,84,0.04,,,0.18,weatherlink.com 1.10,2013-05-08 19:46:00,
2013-05-08 16:01:00,59.9,54.0,30.18,SW,232,1.0,11.0,80,0.03,,,0.19,weatherlink.com 1.10,2013-05-08 20:01:00,
2013-05-08 16:16:00,57.8,54.0,30.18,ENE,71,1.0,9.0,88,0.03,,,0.20,weatherlink.com 1.10,2013-05-08 20:16:00,
2013-05-08 16:31:00,-999.0,-99.9,30.19,SE,142,0.0,7.0,91,0.03,,,0.21,weatherlink.com 1.10,2013-05-08 20:31:00,
2013-05-08 16:46:00,56.3,53.0,30.19,West,265,0.0,4.0,88,0.03,,,0.22,weatherlink.com 1.10,2013-05-08 20:46:00,
2013-05-08 17:01:00,56.3,54.0,30.19,West,273,0.0,0.0,90,0.04,,,0.23,weatherlink.com 1.10,2013-05-08 21:01:00,
2013-05-08 17:16:00,55.9,54.0,30.19,South,173,0.0,2.0,92,0.04,,,0.24,weatherlink.com 1.10,2013-05-08 21:16:00,
2013-05-08 17:31:00,55.4,54.0,30.20,East,80,4.0,4.0,94,0.03,,,0.24,weatherlink.com 1.10,2013-05-08 21:31:00,
2013-05-08 17:46:00,55.2,54.0,30.19,East,80,2.0,2.0,94,0.03,,,0.25,weatherlink.com 1.10,2013-05-08 21:46:00,
2013-05-08 18:01:00,55.1,54.0,30.19,East,96,1.0,4.0,94,0.03,,,0.26,weatherlink.com 1.10,2013-05-08 22:01:00,
2013-05-08 18:16:00,54.9,53.0,30.19,East,97,0.0,5.0,94,0.02,,,0.26,weatherlink.com 1.10,2013-05-08 22:16:00,
2013-05-08 18:31:00,55.0,54.0,30.19,ENE,65,0.0,4.0,95,0.03,,,0.27,weatherlink.com 1.10,2013-05-08 22:31:00,
2013-05-08 19:01:00,55.0,53.0,30.18,SE,133,0.0,0.0,94,0.02,,,0.28,weatherlink.com 1.10,2013-05-08 23:01:00,
2013-05-08 19:16:00,55.1,53.0,30.18,SE,132,0.0,2.0,93,0.03,,,0.29,weatherlink.com 1.10,2013-05-08 23:16:00,
2013-05-08 19:31:00,55.5,53.0,30.18,East,92,0.0,0.0,92,0.03,,,0.30,weatherlink.com 1.10,2013-05-08 23:31:00,
2013-05-08 19:46:00,56.8,54.0,30.18,East,92,0.0,0.0,89,0.02,,,0.30,weatherlink.com 1.10,2013-05-08 23:46:00,
2013-05-08 20:01:00,56.4,53.0,30.19,WNW,302,1.0,4.0,89,0.03,,,0.31,weatherlink.com 1.10,2013-05-09 00:01:00,
2013-05-08 20:29:00,54.8,53.0,30.20,West,267,0.0,2.0,93,0.02,,,0.32,weatherlink.com 1.10,2013-05-09 00:29:00,
2013-05-08 20:46:00,54.1,52.0,30.21,West,259,0.0,0.0,93,0.03,,,0.33,weatherlink.com 1.10,2013-05-09 00:46:00,
2013-05-08 21:01:00,53.4,52.0,30.21,SW,225,0.0,1.0,94,0.02,,,0.33,weatherlink.com 1.10,2013-05-09 01:01:00,
2013-05-08 21:19:00,53.1,52.0,30.21,SSE,159,0.0,1.0,95,0.02,,,0.34,weatherlink.com 1.10,2013-05-09 01:19:00,
2013-05-08 21:31:00,52.8,52.0,30.21,SSE,159,0.0,0.0,95,0.02,,,0.34,weatherlink.com 1.10,2013-05-09 01:31:00,
2013-05-08 21:46:00,52.3,51.0,30.21,SSE,159,0.0,0.0,95,0.01,,,0.34,weatherlink.com 1.10,2013-05-09 01:46:00,
2013-05-08 22:01:00,51.6,50.0,30.21,SSE,159,0.0,0.0,95,0.02,,,0.35,weatherlink.com 1.10,2013-05-09 02:01:00,
2013-05-08 22:16:00,51.5,50.0,30.22,SSE,159,0.0,0.0,96,0.01,,,0.35,weatherlink.com 1.10,2013-05-09 02:16:00,
2013-05-08 22:31:00,50.5,49.0,30.22,SSE,159,0.0,0.0,95,0.02,,,0.36,weatherlink.com 1.10,2013-05-09 02:31:00,
2013-05-08 22:46:00,50.5,49.0,30.23,SSE,159,0.0,1.0,96,0.02,,,0.36,weatherlink.com 1.10,2013-05-09 02:46:00,
2013-05-08 23:01:00,49.8,49.0,30.22,SSE,159,0.0,0.0,96,0.01,,,0.36,weatherlink.com 1.10,2013-05-09 03:01:00,
2013-05-08 23:16:00,49.4,48.0,30.22,SSE,159,0.0,0.0,96,0.02,,,0.37,weatherlink.com 1.10,2013-05-09 03:16:00,
2013-05-08 23:31:00,49.0,48.0,30.22,SSE,159,0.0,0.0,96,0.01,,,0.37,weatherlink.com 1.10,2013-05-09 03:31:00,
2013-05-08 23:46:00,49.2,48.0,30.22,SSE,159,0.0,0.0,96,0.02,,,0.38,weatherlink.com 1.10,2013-05-09 03:46:00,